www.pogodaiklimat.ru

АРХИВ ПОГОДЫ в Кернее

Время (UTC), дата Ветер
(напр.,м/с)
 
Видим.   Явления Облачность Т
(С)
Тd
(С)
f
(%)
Тe
(С)
Тes
(С)
Комфортность

P
(гПа)

Po
(гПа)
Тmin
(С)
Tmax
(С)
R
(мм)
SD
(см)
14:57 10.09 Ю  16 км    ясно  +21.0  +16.0  73  +24  +25  комфорт  1015.6  940.8  +13.9  +23.9     
15:57 10.09 Ю  7
{10} 
16 км    ясно  +23.0  +16.0  65  +27  +28  душно  1015.0  940.2  +13.9  +23.9     
16:57 10.09 Ю  9
{11} 
16 км    ясно  +23.9  +15.6  60  +27  +27  жарко  1014.2  939.6  +13.9  +23.9     
17:57 10.09 Ю  8
{11} 
16 км    ясно  +25.0  +17.0  61  +29  +30  душно  1013.5  939.3  +23.9  +26.1     
18:57 10.09 Ю  8
{11} 
16 км    ясно  +26.0  +17.0  58  +30  +30  душно  1013.1  938.9  +23.9  +26.1     
19:57 10.09 Ю  7
{10} 
16 км    ясно  +26.1  +16.7  56  +30  +31  душно  1012.7  938.6  +23.9  +26.1     
20:57 10.09 Ю  16 км    ясно  +26.0  +17.0  58  +30  +31  душно  1012.8  938.3  +23.9  +26.1     
21:57 10.09 Ю  16 км    ясно  +25.0  +17.0  61  +29  +30  душно  1012.5  938.0  +23.9  +26.1     
22:57 10.09 Ю  16 км    ясно  +23.9  +15.6  60  +27  +27  жарко  1012.9  938.3  +23.9  +26.1     
23:57 10.09 Ю  16 км    ясно  +22.0  +16.0  69  +26  +26  душно  1012.9  938.3  +16.7  +23.9     
00:57 11.09 Ю  16 км    ясно  +20.0  +15.0  73  +22  +22  комфорт  1013.2  938.6  +16.7  +23.9     
01:57 11.09 Ю  16 км    ясно  +18.9  +15.0  78  +19  +19    1013.6  938.9  +16.7  +23.9     
02:57 11.09 Ю  16 км    ясно  +18.0  +15.0  83  +17  +17    1013.6  939.3  +16.7  +23.9     
03:57 11.09 Ю  16 км    ясно  +18.0  +16.0  88  +17  +17    1014.0  939.6  +16.7  +23.9     
04:57 11.09 Ю  16 км    ясно  +16.7  +15.0  90  +15  +15    1014.0  939.6  +16.7  +23.9     
05:57 11.09 Ю  16 км    ясно  +16.0  +15.0  94  +14  +14    1013.7  939.3  +15.0  +16.7     
06:57 11.09 Ю  16 км    ясно  +16.0  +14.0  88  +14  +14    1013.5  938.9  +15.0  +16.7     
07:57 11.09 Ю  16 км    ясно  +15.0  +14.4  96  +13  +13    1013.5  939.3  +15.0  +16.7     
08:57 11.09 Ю  16 км    ясно  +15.0  +14.0  94  +13  +13    1013.3  938.9  +15.0  +16.7     
09:41 11.09 Ю  16 км    2/2 м  +15.0  +14.0  94  +13  +13    1013.2  938.6  +15.0  +16.7     
10:57 11.09 Ю  16 км    ясно  +15.0  +13.9  93  +13  +13    1013.2  938.6  +15.0  +16.7     
11:57 11.09 Ю  16 км    ясно  +16.0  +14.0  88  +15  +15    1013.3  938.6  +14.4  +26.7     
12:57 11.09 Ю  7
{10} 
16 км    ясно  +17.0  +15.0  88  +16  +16    1013.3  938.6  +14.4  +26.7     
13:57 11.09 Ю  16 км    ясно  +19.4  +16.1  81  +20  +20    1013.3  938.9  +14.4  +26.7     
14:57 11.09 Ю  16 км    ясно  +22.0  +17.0  73  +26  +26  душно  1013.0  938.6  +14.4  +26.7     
15:57 11.09 Ю  11
{14} 
16 км    ясно  +24.0  +17.0  65  +28  +28  душно  1012.4  938.0  +14.4  +26.7     
16:57 11.09 Ю  10
{13} 
16 км    ясно  +26.7  +18.3  60  +31  +31  душно  1012.0  937.7  +14.4  +26.7     
17:57 11.09 Ю  10
{14} 
16 км    ясно  +28.0  +18.0  55  +33  +33  очень
душно 
1011.6  937.7  +25.6  +28.3     
18:57 11.09 Ю  11
{13} 
16 км    ясно  +28.0  +19.0  58  +33  +33  очень
душно 
1011.2  937.1  +25.6  +28.3     
19:57 11.09 Ю  11
{14} 
16 км    ясно  +28.3  +18.9  57  +34  +34  очень
душно 
1010.9  936.7  +25.6  +28.3     
20:57 11.09 Ю  10
{13} 
16 км    ясно  +28.0  +18.0  55  +33  +33  очень
душно 
1010.8  936.7  +25.6  +28.3     
21:57 11.09 Ю  9
{14} 
16 км    ясно  +27.0  +17.0  54  +31  +31  душно  1010.7  936.7  +25.6  +28.3     
22:57 11.09 Ю  6
{11} 
16 км    ясно  +25.6  +17.8  62  +30  +30  душно  1010.7  936.4  +25.6  +28.3     
23:57 11.09 Ю  7
{10} 
16 км    ясно  +23.0  +17.0  69  +28  +28  душно  1011.3  937.1  +18.3  +25.6     
00:57 12.09 Ю  16 км    ясно  +22.0  +16.0  69  +26  +26  душно  1012.5  938.0  +18.3  +25.6     
01:57 12.09 Ю  16 км    ясно  +20.0  +15.6  76  +22  +22  комфорт  1012.8  938.3  +18.3  +25.6     
02:57 12.09 Ю  16 км    ясно  +19.0  +16.0  83  +20  +20    1013.0  938.6  +18.3  +25.6     
03:57 12.09 Ю  16 км    ясно  +19.0  +16.0  83  +20  +20    1013.4  939.3  +18.3  +25.6     
04:57 12.09 Ю  16 км    ясно  +18.3  +15.6  84  +18  +18    1013.5  939.3  +18.3  +25.6     
05:57 12.09 Ю  16 км    ясно  +18.0  +16.0  88  +18  +18    1013.5  939.3  +15.6  +18.3     
06:57 12.09 Ю  16 км    ясно  +17.0  +15.0  88  +16  +16    1013.4  939.3  +15.6  +18.3     
07:57 12.09 Ю  16 км    ясно  +16.7  +15.0  90  +16  +16    1013.4  939.3  +15.6  +18.3     
08:57 12.09 Ю  16 км    ясно  +16.0  +15.0  94  +15  +15    1013.5  939.3  +15.6  +18.3     
09:57 12.09 Ю  16 км    ясно  +16.0  +15.0  94  +15  +15    1013.2  938.9  +15.6  +18.3     
10:57 12.09 Ю  16 км    ясно  +15.6  +15.0  96  +14  +14    1013.5  939.3  +15.6  +18.3     
11:57 12.09 Ю  16 км    ясно  +16.0  +15.0  94  +15  +15    1014.1  939.6  +15.6  +26.1     
12:18 12.09 Ю  16 км    8/8 м  +17.0  +16.0  94  +16  +16    1014.2  939.6  +15.6  +26.1     
13:17 12.09 Ю  16 км    8/8 м  +19.0  +17.0  88  +20  +20    1014.1  939.6  +15.6  +26.1     

 

Местоположение метеостанции Kearney Municipal Airport: широта 40.7333 долгота -99.0000 высота над уровнем моря 650 м.

В архиве по умолчанию представлена погода в Кернее за последние 1-2 суток. Обновление информации о фактической погоде в базе происходит ежечасно! Архивные данные за месяц целиком и за предыдущие месяцы Вы можете получить, выбрав интересующий диапазон дат из раскрывающегося списка и нажав кнопку "Ввод!".

Внимание! Архив погоды МЕТАР в базе сайта в настоящее время начинается c 1 января 2013 г. Нет смысла пытаться выбрать более раннюю дату.

Внимание! Время в таблицах - всемирное. Для получения местного времени необходимо прибавить поправку, которая в Кернее равна -6 ч.

Ветер - указаны скорость ветра в м/с и направление, откуда дует ветер: С - северный, СВ - северо-восточный, В - восточный, ЮВ - юго-восточный, Ю - южный, ЮЗ - юго-западный, З - западный, СЗ - северо-западный.
Видимость - горизонтальная дальность видимости в метрах или километрах. При видимости от 1 до 10 км при отсутствии осадков обычно наблюдается дымка, при ухудшении видимости до 1 км и менее - туман. В сухую погоду видимость может ухудшаться дымом, пылью или мглою.
Атмосферные явления - указаны явления, наблюдавшиеся в указанный момент времени.
Облачность - указаны через наклонную черту верхняя и нижняя облачность в баллах и высота нижней границы облаков в метрах. Внимание: облачность, как и прочие метеорологические величины в США измеряются автоматическими метеостанциями. Указанные значения в баллах носят условный характер и показывают процент времени, в течение которого, в среднем, лазерный луч высотомера отражался от облаков обратно.
T - Температура воздуха - температура, измеренная на высоте 2 м над землей.
Td - Температура точки росы - температура, при понижении до которой содержащийся в воздухе водяной пар достигнет насыщения.
f - Относительная влажность воздуха - влажноcть воздуха, измеренная на высоте 2 м над землей.
Te - Эффективная температура - температура, которую ощущает одетый по сезону человек в тени. Характеристика душности погоды. При расчете учитывается влияние влажности воздуха и скорости ветра на теплоощущения человека.
Tes - Эффективная температура на солнце - температура, которую ощущает человек, с поправкой на солнечный нагрев. Характеристика знойности погоды. Зависит от высоты солнца над горизонтом, облачности и скорости ветра. Ночью, в пасмурную погоду, а также при ветре 12 м/с и более поправка равна нулю.
P - Атмосферное давление - приведенное к уровню моря атмосферное давление.
Po - Атмосферное давление - измеренное на уровне метеостанции атмосферное давление.
Tmin - Минимальная температура - минимум температуры воздуха на высоте 2 м над землей.
Tmax - Максимальная температура - максимум температуры воздуха на высоте 2 м над землей.
R - Количество осадков - Количество выпавших осадков за 3 или 6 часов, мм.
SD - Снежный покров - Высота снежного покрова, см.